EW7112 Weather Reports


time (UTC)temp
C
wind
direction
speed
KPH
gust
KPH
rain 1hr
cm
rain 24hr
cm
rain mn
cm
humidity
%
barometer
mb
20260505000041 26 332 8.0 22.5 0.00 0.00 0.00 61 984.1
20260504234543 26 175 9.7 25.7 0.00 0.00 0.00 60 984.1
20260504233038 26 195 4.8 24.1 0.00 0.00 0.00 60 984.3
20260504231536 26 104 6.4 24.1 0.00 0.00 0.00 59 984.1
20260504230035 26 212 9.7 24.1 0.00 0.00 0.00 58 984.4
20260504224532 27 136 6.4 24.1 0.00 0.00 0.00 57 984.5
20260504223037 27 264 8.0 22.5 0.00 0.00 0.00 57 984.6
20260504221527 27 174 8.0 29.0 0.00 0.00 0.00 56 984.5
20260504220030 27 207 9.7 27.4 0.00 0.00 0.00 56 984.7
20260504214523 27 237 12.9 25.7 0.00 0.00 0.00 56 985.0
20260504213025 27 152 11.3 22.5 0.00 0.00 0.00 55 985.2
20260504211529 28 72 6.4 24.1 0.00 0.00 0.00 55 985.3
20260504210013 27 210 4.8 24.1 0.00 0.00 0.00 56 985.7
20260504204511 27 265 9.7 25.7 0.00 0.00 0.00 56 986.0
20260504203008 27 83 8.0 17.7 0.00 0.00 0.00 54 986.3
20260504201504 27 96 6.4 19.3 0.00 0.00 0.00 55 986.6
20260504200003 27 182 4.8 20.9 0.00 0.00 0.00 55 986.9
20260504194604 27 238 9.7 22.5 0.00 0.00 0.00 54 987.3
20260504193107 27 149 8.0 29.0 0.00 0.00 0.00 54 987.3
20260504191609 26 217 6.4 19.3 0.00 0.00 0.00 55 987.5
20260504190105 26 247 6.4 27.4 0.00 0.00 0.00 55 988.0
20260504184553 26 219 9.7 24.1 0.00 0.00 0.00 54 988.1
20260504183046 26 250 8.0 24.1 0.00 0.00 0.00 55 988.4
20260504181547 26 178 8.0 25.7 0.00 0.00 0.00 56 988.4
20260504180040 25 208 11.3 20.9 0.00 0.00 0.00 56 988.7
20260504174543 25 177 8.0 25.7 0.00 0.00 0.00 55 989.0
20260504173035 25 160 4.8 19.3 0.00 0.00 0.00 57 989.1
20260504171534 24 187 6.4 25.7 0.00 0.00 0.00 58 989.3
20260504081508 18 229 3.2 11.3 0.00 0.00 0.00 60 991.9
20260504044537 21 172 1.6 9.7 0.00 0.00 0.00 50 993.9
20260504043041 21 202 3.2 11.3 0.00 0.00 0.00 49 994.0
20260504041536 21 121 1.6 8.0 0.00 0.00 0.00 49 994.2
20260504040038 21 103 1.6 11.3 0.00 0.00 0.00 48 994.1
20260504034535 21 171 3.2 11.3 0.00 0.00 0.00 48 993.9
20260504033034 21 199 3.2 9.7 0.00 0.00 0.00 49 994.0
20260504031541 22 226 3.2 14.5 0.00 0.00 0.00 47 994.0
20260504030035 22 222 1.6 11.3 0.00 0.00 0.00 46 993.8
20260504024534 22 203 3.2 14.5 0.00 0.00 0.00 45 993.8
20260504023036 22 235 3.2 12.9 0.00 0.00 0.00 43 993.8
20260504021532 23 212 1.6 9.7 0.00 0.00 0.00 40 993.8
20260504020031 23 94 4.8 16.1 0.00 0.00 0.00 38 993.6
20260504014534 23 219 4.8 17.7 0.00 0.00 0.00 38 993.5
20260504013035 23 182 3.2 17.7 0.00 0.00 0.00 37 993.4
20260504011529 24 186 4.8 12.9 0.00 0.00 0.00 37 993.4
20260504010027 24 203 9.7 24.1 0.00 0.00 0.00 35 993.4
20260504004526 25 194 3.2 17.7 0.00 0.00 0.00 36 993.3
20260504003023 25 221 3.2 17.7 0.00 0.00 0.00 36 993.4
20260504001523 25 177 4.8 11.3 0.00 0.00 0.00 35 993.3